BEIDOU-3 M1 (C19)

Last updated on Jan. 19, 2020, 4:38 a.m. UTC

1 43001U 17069A   20018.49203685  .00000005  00000-0  00000-0 0  9994
2 43001  55.1681 141.2721 0007725 284.9397  78.5237  1.86231808 14999
UTC
Height (km)
Latitude
Longitude
Inclination
Orbital Period
UTC large
Height (km)
Speed (km/s)
/
Latitude / Longitude
Inclination (degrees)
Orbital Period (minutes)
Azimuth
Elevation
Range (km)
Doppler Factor
iOS Compass Heading
iOS Angle

Next 30 passes for location: Hong Kong

Rise time Rise Azimuth (degrees) Set time Set Azimuth (degrees) Duration Max altitude (degrees)

No matching passes for this satellites